LogID,LogEntryDate,LogEntryTime,LogEntrySeconds,LogNotes,STFT,CurrentLTFT,CruiseLTFT,IdleLTFT,Load,AFR,IPW,AFRMAP,LoadTiming,TimingAdv,KnockSum,RPM,Baro,MAP,Boost,WGDC_Active,MAF,IDC,InVVTtarget,ExVVTtarget,InVVTactual,ExVVTactual,TPS,APP,IAT,WGDCCorr,Speed,Battery,ECT,MAT,MAPCalcs,IMAPCalcs,MAFCalcs,ChosenCalc,Custom
1,2017-07-30,01:06:18.43891,0.10733,,0,-11.328125,-3.515625,-11.328125,10.9375,19.07358,0,14.7,10.9375,0,0,2804.6875,14.503774,2.9910939,-11.5126801,0,1.56864,0,10,0,9.53125,-0.15625,14.1176470588235,9.61176470588235,80.6,0,58.421,14.00603,177.8,96.8,12.5,0,10.9375,10.9375,
2,2017-07-30,01:06:18.51691,0.17734,,0,-11.328125,-3.515625,-11.328125,10.9375,19.07358,0,14.7,10.9375,0,0,2796.875,14.503774,2.9910939,-11.5126801,0,1.56864,0,10,0,9.53125,-0.15625,14.1176470588235,9.61176470588235,80.6,0,58.421,14.00603,177.8,96.8,12.5,0,10.9375,10.9375,
3,2017-07-30,01:06:18.59491,0.25652,,0,-11.328125,-3.515625,-11.328125,10.9375,19.07358,0,14.7,10.9375,0,0,2796.875,14.503774,3.0875808,-11.4161932,0,1.549032,0,10,0,9.53125,-0.15625,14.1176470588235,9.61176470588235,80.6,0,58.421,14.00603,177.8,96.8,12.5,0,9.375,10.9375,
4,2017-07-30,01:06:18.68851,0.34639,,0,-11.328125,-3.515625,-11.328125,10.9375,19.07358,0,14.7,10.9375,0,0,2789.0625,14.503774,3.0875808,-11.4161932,0,1.549032,0,10,0,9.21875,-0.15625,14.1176470588235,9.61176470588235,80.6,0,58.421,14.00603,177.8,96.8,12.5,0,10.9375,10.9375,
5,2017-07-30,01:06:18.76651,0.43623,,0,-11.328125,-3.515625,-11.328125,10.9375,19.07358,0,14.7,10.9375,0,0,2781.25,14.503774,3.0875808,-11.4161932,0,1.607856,0,10,0,9.21875,-0.15625,14.1176470588235,9.61176470588235,80.6,0,58.421,14.00603,177.8,96.8,12.5,0,10.9375,10.9375,
6,2017-07-30,01:06:18.86011,0.53115,,0,-11.328125,-3.515625,-11.328125,10.9375,19.07358,0,14.7,10.9375,0,0,2781.25,14.503774,3.0875808,-11.4161932,0,1.607856,0,10,0,9.53125,-0.15625,14.1176470588235,9.61176470588235,80.6,0,58.421,14.00603,177.8,96.8,12.5,0,10.9375,10.9375,
7,2017-07-30,01:06:18.95371,0.62127,,0,-11.328125,-3.515625,-11.328125,10.9375,19.07358,0,14.7,10.9375,0,0,2765.625,14.503774,2.9910939,-11.5126801,0,1.647072,0,10,0,9.53125,-0.15625,14.1176470588235,9.61176470588235,80.6,0,58.421,14.00603,177.8,96.8,12.5,0,10.9375,10.9375,
8,2017-07-30,01:06:19.04731,0.71619,,0,-11.328125,-3.515625,-11.328125,10.9375,19.07358,0,14.7,10.9375,0,0,2765.625,14.503774,2.9910939,-11.5126801,0,1.647072,0,10,0,9.375,-0.3125,14.1176470588235,9.61176470588235,80.6,0,58.421,14.00603,177.8,96.8,12.5,0,10.9375,10.9375,
9,2017-07-30,01:06:19.14091,0.80023,,0,-11.328125,-3.515625,-11.328125,10.9375,19.07358,0,14.7,10.9375,0,0,2765.625,14.503774,2.9910939,-11.5126801,0,1.56864,0,10,0,9.375,-0.3125,14.1176470588235,9.61176470588235,80.6,0,58.421,14.00603,177.8,96.8,12.5,0,10.9375,10.9375,
10,2017-07-30,01:06:19.21891,0.88005,,0,-11.328125,-3.515625,-11.328125,10.9375,19.07358,0,14.7,10.9375,0,0,2757.8125,14.503774,2.9910939,-11.5126801,0,1.56864,0,10,0,9.375,-0.3125,14.1176470588235,9.61176470588235,80.6,0,58.421,14.00603,177.8,96.8,12.5,0,10.9375,10.9375,
11,2017-07-30,01:06:19.29691,0.96507,,0,-11.328125,-3.515625,-11.328125,10.9375,19.07358,0,14.7,10.9375,0,0,2757.8125,14.503774,2.9910939,-11.5126801,0,1.588248,0,10,0,9.375,-0.3125,14.1176470588235,9.61176470588235,80.6,0,58.421,14.00603,177.8,96.8,12.5,0,10.9375,10.9375,
12,2017-07-30,01:06:19.39051,1.05503,,0,-11.328125,-3.515625,-11.328125,10.9375,19.07358,0,14.7,10.9375,0,0,2750,14.503774,2.9910939,-11.5126801,0,1.588248,0,10,0,9.375,-0.15625,14.1176470588235,9.61176470588235,80.6,0,58.421,13.9327,177.8,96.8,12.5,0,10.9375,10.9375,
13,2017-07-30,01:06:19.46851,1.13519,,0,-11.328125,-3.515625,-11.328125,10.9375,19.07358,0,14.7,10.9375,0,0,2734.375,14.503774,2.9910939,-11.5126801,0,1.56864,0,10,0,9.375,-0.15625,14.1176470588235,9.61176470588235,80.6,0,58.421,13.9327,177.8,96.8,12.5,0,10.9375,10.9375,
14,2017-07-30,01:06:19.56211,1.22005,,0,-11.328125,-3.515625,-11.328125,10.9375,19.07358,0,14.7,10.9375,0,0,2734.375,14.503774,2.9910939,-11.5126801,0,1.56864,0,10,0,9.375,-0.15625,14.1176470588235,9.61176470588235,80.6,0,58.421,13.9327,177.8,96.8,12.5,0,10.9375,10.9375,
15,2017-07-30,01:06:19.64011,1.30509,,0,-11.328125,-3.515625,-11.328125,10.9375,19.07358,0,14.7,10.9375,0,0,2734.375,14.503774,3.0875808,-11.4161932,0,1.588248,0,10,0,9.375,-0.15625,14.1176470588235,9.61176470588235,80.6,0,57.178,14.00603,177.8,96.8,12.5,0,10.9375,10.9375,
16,2017-07-30,01:06:19.71811,1.38,,0,-11.328125,-3.515625,-11.328125,10.9375,19.07358,0,14.7,10.9375,0,0,2664.0625,14.503774,3.0875808,-11.4161932,0,1.588248,0,10,0,9.53125,-0.3125,14.1176470588235,9.61176470588235,80.6,0,57.178,14.00603,177.8,96.8,12.5,0,10.9375,10.9375,
17,2017-07-30,01:06:19.79611,1.45908,,0,-11.328125,-3.515625,-11.328125,10.9375,19.07358,0,14.7,10.9375,0,0,2578.125,14.503774,3.0875808,-11.4161932,0,1.549032,0,10,0,9.53125,-0.3125,13.7254901960784,9.61176470588235,80.6,0,57.178,14.00603,177.8,96.8,12.5,0,10.9375,10.9375,
18,2017-07-30,01:06:19.87411,1.5338,,0,-11.328125,-3.515625,-11.328125,10.9375,19.07358,0,14.7,10.9375,0,0,2484.375,14.503774,3.0875808,-11.4161932,0,1.549032,0,10,0,9.53125,-0.3125,13.7254901960784,9.61176470588235,80.6,0,57.178,14.00603,177.8,96.8,12.5,0,14.0625,12.5,
19,2017-07-30,01:06:19.93651,1.60387,,0,-11.328125,-3.515625,-11.328125,12.5,19.07358,1.8,14.7,12.5,0,0,2390.625,14.503774,3.1840677,-11.3197063,0,1.607856,3.5859375,10,0,9.53125,-0.3125,13.7254901960784,9.61176470588235,80.6,0,57.178,14.00603,177.8,96.8,12.5,0,14.0625,12.5,
20,2017-07-30,01:06:20.01451,1.68387,,0,-11.328125,-3.515625,-11.328125,14.0625,19.07358,2.4,14.7,17.1875,44,0,2328.125,14.503774,3.1840677,-11.3197063,0,1.607856,4.65625,11.875,-1.875,9.53125,-0.46875,47.0588235294118,58.6823529411765,80.6,0,57.178,14.00603,177.8,96.8,65.625,0,128.125,59.375,
21,2017-07-30,01:06:20.09251,1.75911,,0,-11.328125,-3.515625,-11.328125,64.0625,19.07358,6.1,14.7,68.75,22,0,2578.125,14.503774,14.2800612,-0.223712799999999,0,2.392176,13.10546875,11.875,-1.875,9.53125,-0.46875,47.0588235294118,58.6823529411765,80.6,0,57.178,13.9327,177.8,96.8,84.375,0,75,71.875,
22,2017-07-30,01:06:20.18611,1.84929,,0,-3.515625,-3.515625,-11.328125,78.125,15.8877,5.6,14.5860465116279,81.25,13,0,3187.5,14.503774,14.2800612,-0.223712799999999,0,2.392176,14.875,32.5,-20,28.28125,-19.21875,47.0588235294118,58.6823529411765,80.6,0,57.178,13.9327,177.8,96.8,79.6875,53.125,82.8125,79.6875,
23,2017-07-30,01:06:20.31091,1.96953,,0,-3.515625,-3.515625,-11.328125,54.6875,12.0486,1.8,14.7,45.3125,-10,0,3468.75,14.503774,7.2365175,-7.2672565,0,2.078448,5.203125,32.5,-20,28.28125,-19.21875,14.1176470588235,9.61176470588235,80.6,0,57.178,13.9327,177.8,96.8,31.25,28.125,50,31.25,
24,2017-07-30,01:06:20.40451,2.07431,,0,-3.515625,-3.515625,-11.328125,20.3125,11.361,1.9,14.7,18.75,-6,0,3367.1875,14.503774,7.2365175,-7.2672565,0,2.078448,5.33138020833333,10,0,25.9375,-12.8125,14.1176470588235,9.61176470588235,80.6,0,57.178,13.9327,177.8,96.8,17.1875,15.625,3.125,15.625,
25,2017-07-30,01:06:20.49811,2.16332,,0,-11.328125,-3.515625,-11.328125,12.5,11.34954,1.3,14.7,10.9375,-10,0,3585.9375,14.503774,2.894607,-11.609167,0,1.901976,3.884765625,10,0,25.9375,-12.8125,14.1176470588235,9.61176470588235,80.6,0,57.178,13.9327,177.8,96.8,10.9375,10.9375,17.1875,10.9375,
26,2017-07-30,01:06:20.62291,2.28163,,0,-11.328125,-3.515625,-11.328125,10.9375,11.00574,1.4,14.7,10.9375,-10,0,3960.9375,14.503774,2.894607,-11.609167,0,1.901976,4.62109375,10,0,9.53125,-0.625,11.7647058823529,9.61176470588235,80.6,0,57.178,13.9327,177.8,96.8,12.5,10.9375,15.625,12.5,
27,2017-07-30,01:06:20.71651,2.37833,,0,-11.328125,-3.515625,-11.328125,10.9375,11.42976,0,14.7,10.9375,-6,0,3796.875,14.503774,2.3156856,-12.1880884,0,1.9608,0,10,0,9.53125,-0.625,11.7647058823529,9.61176470588235,80.6,0,57.178,14.00603,177.8,96.8,12.5,0,17.1875,12.5,
28,2017-07-30,01:06:20.81012,2.46831,,0,-11.328125,-3.515625,-11.328125,12.5,10.5588,0,14.7,10.9375,-10,0,3875,14.503774,2.3156856,-12.1880884,0,1.9608,0,10,0,9.53125,-0.78125,11.7647058823529,9.61176470588235,80.6,0,57.178,14.00603,177.8,96.8,12.5,0,12.5,10.9375,
29,2017-07-30,01:06:20.90372,2.56334,,0,-11.328125,-3.515625,-11.328125,10.9375,10.6161,0,14.7,10.9375,-8,0,3828.125,14.503774,3.0875808,-11.4161932,0,1.745112,0,10,0,9.53125,-0.78125,15.2941176470588,9.61176470588235,80.6,0,57.178,14.00603,177.8,96.8,12.5,0,10.9375,10.9375,
30,2017-07-30,01:06:20.99732,2.65747,,0,-11.328125,-3.515625,-11.328125,10.9375,10.69632,0,14.7,10.9375,-10,0,3812.5,14.503774,3.0875808,-11.4161932,0,1.745112,0,10,0,9.375,-0.625,15.2941176470588,9.61176470588235,80.6,0,55.935,14.00603,177.8,96.8,12.5,0,12.5,10.9375,
31,2017-07-30,01:06:21.09092,2.75334,,0,-11.328125,-3.515625,-11.328125,10.9375,10.6734,0,14.7,10.9375,-7,0,3781.25,14.503774,3.0875808,-11.4161932,0,1.705896,0,10,0,9.375,-0.625,15.2941176470588,9.61176470588235,80.6,0,55.935,14.00603,177.8,96.8,12.5,0,9.375,10.9375,
32,2017-07-30,01:06:21.18452,2.84731,,0,-11.328125,-3.515625,-11.328125,10.9375,12.99978,0,14.7,10.9375,-3,0,3804.6875,14.503774,3.0875808,-11.4161932,0,1.705896,0,10,0,9.53125,-0.46875,15.2941176470588,9.61176470588235,80.6,0,55.935,14.00603,177.8,96.8,12.5,0,9.375,9.375,
33,2017-07-30,01:06:21.27812,2.94236,,0,-11.328125,-3.515625,-11.328125,9.375,18.93606,0,14.7,10.9375,0,0,3765.625,14.503774,3.0875808,-11.4161932,0,1.725504,0,10,0,9.53125,-0.46875,15.2941176470588,9.61176470588235,80.6,0,55.935,13.9327,177.8,96.8,12.5,0,9.375,10.9375,
34,2017-07-30,01:06:21.37172,3.0323,,0,-11.328125,-3.515625,-11.328125,10.9375,19.07358,0,14.7,10.9375,0,0,3781.25,14.503774,3.0875808,-11.4161932,0,1.725504,0,10,0,9.53125,-0.46875,15.2941176470588,9.61176470588235,80.6,0,55.935,13.9327,177.8,96.8,12.5,0,9.375,9.375,
35,2017-07-30,01:06:21.44972,3.1223,,0,-11.328125,-3.515625,-11.328125,10.9375,19.07358,0,14.7,10.9375,0,0,3742.1875,14.503774,3.0875808,-11.4161932,0,1.686288,0,10,0,9.53125,-0.46875,15.2941176470588,9.61176470588235,80.6,0,55.935,13.9327,177.8,96.8,12.5,0,9.375,10.9375,
36,2017-07-30,01:06:21.54332,3.2123,,0,-11.328125,-3.515625,-11.328125,10.9375,19.07358,0,14.7,10.9375,0,0,3750,14.503774,3.0875808,-11.4161932,0,1.686288,0,10,0,9.53125,-0.625,15.2941176470588,9.61176470588235,80.6,0,55.935,14.00603,177.8,96.8,12.5,0,9.375,9.375,
37,2017-07-30,01:06:21.63692,3.30235,,0,-11.328125,-3.515625,-11.328125,9.375,19.07358,0,14.7,9.375,0,0,3726.5625,14.43125513,3.0875808,-11.34367433,0,1.705896,0,10,0,9.53125,-0.625,15.2941176470588,9.61176470588235,80.6,0,55.935,14.00603,177.8,96.8,12.5,0,10.9375,9.375,
38,2017-07-30,01:06:21.73052,3.39971,,0,-11.328125,-3.515625,-11.328125,9.375,19.07358,0,14.7,9.375,0,0,3710.9375,14.43125513,3.0875808,-11.34367433,0,1.705896,0,10,0,9.375,-0.46875,14.9019607843137,9.61176470588235,80.6,0,55.935,14.00603,177.8,96.8,12.5,0,9.375,9.375,
39,2017-07-30,01:06:21.82412,3.49135,,0,-11.328125,-3.515625,-11.328125,9.375,19.07358,0,14.7,9.375,0,0,3687.5,14.503774,2.9910939,-11.5126801,0,1.66668,0,10,0,9.375,-0.46875,14.9019607843137,9.61176470588235,80.6,0,53.449,14.00603,177.8,96.8,12.5,0,9.375,9.375,
40,2017-07-30,01:06:21.91772,3.58138,,0,-11.328125,-3.515625,-11.328125,9.375,19.07358,0,14.7,9.375,0,0,3671.875,14.503774,2.9910939,-11.5126801,0,1.66668,0,10,0,9.6875,-0.46875,14.9019607843137,9.61176470588235,80.6,0,53.449,14.00603,177.8,96.8,12.5,0,10.9375,9.375,
41,2017-07-30,01:06:22.01132,3.67136,,0,-11.328125,-3.515625,-11.328125,9.375,19.07358,0,14.7,9.375,0,0,3656.25,14.503774,3.0875808,-11.4161932,0,1.705896,0,10,0,9.6875,-0.46875,14.9019607843137,9.61176470588235,80.6,0,53.449,14.00603,177.8,96.8,12.5,0,9.375,9.375,
42,2017-07-30,01:06:22.08932,3.7613,,0,-11.328125,-3.515625,-11.328125,9.375,19.07358,0,14.7,9.375,0,0,3648.4375,14.503774,3.0875808,-11.4161932,0,1.705896,0,10,0,9.53125,-0.46875,14.9019607843137,9.61176470588235,80.6,0,53.449,14.00603,177.8,96.8,12.5,0,7.8125,9.375,
43,2017-07-30,01:06:22.18292,3.85129,,0,-11.328125,-3.515625,-11.328125,9.375,19.07358,0,14.7,9.375,0,0,3578.125,14.43125513,3.0875808,-11.34367433,0,1.647072,0,10,0,9.53125,-0.46875,14.9019607843137,9.61176470588235,80.6,0,53.449,14.00603,177.8,96.8,12.5,0,9.375,9.375,
44,2017-07-30,01:06:22.27652,3.9413,,0,-11.328125,-3.515625,-11.328125,9.375,19.07358,0,14.7,10.9375,0,0,3468.75,14.43125513,3.0875808,-11.34367433,0,1.647072,0,10,0,9.53125,-0.3125,14.5098039215686,9.61176470588235,80.6,0,53.449,14.00603,177.8,96.8,12.5,0,9.375,9.375,
45,2017-07-30,01:06:22.37012,4.0353,,0,-11.328125,-3.515625,-11.328125,10.9375,19.07358,0,14.7,10.9375,0,0,3343.75,14.503774,3.1840677,-11.3197063,0,1.627464,0,10,0,9.53125,-0.3125,14.5098039215686,9.61176470588235,80.6,0,53.449,13.9327,177.8,96.8,12.5,0,9.375,9.375,
46,2017-07-30,01:06:22.46372,4.12516,,0,-11.328125,-3.515625,-11.328125,9.375,19.07358,0,14.7,9.375,0,0,3187.5,14.503774,3.1840677,-11.3197063,0,1.627464,0,10,0,9.21875,0,14.5098039215686,9.61176470588235,80.6,0,53.449,13.9327,177.8,96.8,12.5,0,15.625,10.9375,
47,2017-07-30,01:06:22.55732,4.22031,,0,-11.328125,-3.515625,-11.328125,18.75,19.07358,3.4,14.7,32.8125,44,0,3195.3125,14.503774,13.0257315,-1.4780425,0,3.058848,9.05338541666667,10,0,9.21875,0,54.9019607843137,63.7411764705882,80.6,0,53.449,13.9327,177.8,96.8,79.6875,0,95.3125,71.875,
48,2017-07-30,01:06:22.65092,4.31529,,0,-11.328125,-3.515625,-11.328125,78.125,19.06212,6,14.2545454545455,81.25,35,0,3687.5,14.503774,13.0257315,-1.4780425,0,3.058848,18.4375,32.5,-20,22.65625,-14.53125,54.9019607843137,63.7411764705882,80.6,0,53.449,14.00603,177.8,98.6,84.375,17.1875,90.625,84.375,
49,2017-07-30,01:06:22.74452,4.4056,,0,0,-3.515625,-11.328125,78.125,11.39538,5.2,13.6347826086957,76.5625,-10,0,4304.6875,14.503774,12.7362708,-1.7675032,0,2.9412,18.6536458333333,32.5,-20,22.65625,-14.53125,54.9019607843137,63.7411764705882,80.6,0,53.449,14.00603,177.8,98.6,73.4375,65.625,82.8125,73.4375,
50,2017-07-30,01:06:22.83812,4.50033,,0,0,-3.515625,-11.328125,64.0625,10.82238,3.7,14.0417910447761,62.5,-8,0,4281.25,14.503774,12.7362708,-1.7675032,0,2.9412,13.2005208333333,27.5,-20,30.46875,-19.53125,23.5294117647059,9.61176470588235,80.6,0,53.449,14.00603,177.8,98.6,53.125,48.4375,43.75,53.125,
51,2017-07-30,01:06:22.93172,4.5943,,0,0,-3.515625,-11.328125,39.0625,11.05158,1.9,14.7,32.8125,-3,0,4289.0625,14.503774,6.2716485,-8.2321255,0,2.000016,6.791015625,27.5,-20,30.46875,-19.53125,23.5294117647059,9.61176470588235,80.6,0,53.449,14.07936,177.8,98.6,28.125,25,14.0625,26.5625,
52,2017-07-30,01:06:23.02532,4.68434,,0,-3.515625,-3.515625,-11.328125,20.3125,11.45268,1.2,14.7,17.1875,-10,0,4679.6875,14.503774,6.2716485,-8.2321255,0,2.000016,4.6796875,10,0,23.28125,-13.75,23.5294117647059,9.61176470588235,80.6,0,53.449,14.07936,177.8,98.6,12.5,10.9375,25,12.5,
53,2017-07-30,01:06:23.11892,4.78434,,0,-3.515625,-3.515625,-11.328125,10.9375,11.23494,1.4,14.7,10.9375,-9,0,4789.0625,14.503774,2.894607,-11.609167,0,1.901976,5.58723958333333,10,0,23.28125,-13.75,14.9019607843137,9.61176470588235,78.8,0,53.449,14.07936,177.8,98.6,10.9375,0,34.375,10.9375,
54,2017-07-30,01:06:23.21252,4.8793,,0,-3.515625,-3.515625,-11.328125,12.5,11.54436,1.5,14.7,12.5,-4,0,4609.375,14.503774,2.894607,-11.609167,0,1.901976,5.76171875,10,0,17.34375,-5.9375,14.9019607843137,9.61176470588235,78.8,0,52.206,14.00603,177.8,98.6,14.0625,0,14.0625,12.5,
55,2017-07-30,01:06:23.30612,4.96934,,0,-3.515625,-3.515625,-11.328125,14.0625,10.42128,1.6,14.7,14.0625,-10,0,4625,14.503774,3.7629891,-10.7407849,0,1.86276,6.16666666666667,10,0,17.34375,-5.9375,14.9019607843137,9.61176470588235,78.8,0,52.206,14.00603,177.8,98.6,15.625,0,12.5,14.0625,
56,2017-07-30,01:06:23.41532,5.08262,,0,-3.515625,-3.515625,-11.328125,14.0625,10.70778,1.6,14.7,15.625,-8,0,4656.25,14.503774,3.7629891,-10.7407849,0,1.86276,6.20833333333333,10,0,14.6875,-3.4375,18.4313725490196,9.61176470588235,78.8,0,52.206,14.00603,177.8,98.6,20.3125,0,15.625,17.1875,
57,2017-07-30,01:06:23.52452,5.18324,,0,-3.515625,-3.515625,-11.328125,17.1875,13.32066,1.7,14.7,17.1875,-3,0,4523.4375,14.43125513,3.9559629,-10.47529223,0,1.921584,6.408203125,10,0,14.6875,-3.4375,18.4313725490196,9.61176470588235,78.8,0,52.206,14.00603,176,98.6,17.1875,0,12.5,15.625,
58,2017-07-30,01:06:23.60252,5.2733,,0,-3.515625,-3.515625,-11.328125,15.625,14.14578,1.7,14.7,15.625,2,0,4570.3125,14.43125513,3.9559629,-10.47529223,0,1.921584,6.474609375,10,0,12.8125,-2.34375,18.4313725490196,9.61176470588235,78.8,0,52.206,14.00603,176,98.6,15.625,0,15.625,15.625,
59,2017-07-30,01:06:23.69612,5.36834,,0,-3.515625,-3.515625,-11.328125,15.625,14.6271,1.7,14.7,15.625,6,0,4484.375,14.503774,3.7629891,-10.7407849,0,1.86276,6.35286458333333,10,0,12.8125,-2.34375,17.6470588235294,9.61176470588235,78.8,0,52.206,14.00603,176,98.6,15.625,0,12.5,15.625,
60,2017-07-30,01:06:23.80532,5.46829,,0,-3.515625,-3.515625,-11.328125,14.0625,14.24892,1.6,14.7,14.0625,11,0,4484.375,14.503774,3.7629891,-10.7407849,0,1.86276,5.97916666666667,10,0,11.5625,-1.5625,17.6470588235294,9.61176470588235,78.8,0,49.72,13.9327,176,98.6,14.0625,0,14.0625,14.0625,
61,2017-07-30,01:06:23.89892,5.55829,,0,-3.515625,-3.515625,-11.328125,14.0625,14.30622,1.6,14.7,14.0625,16,0,4429.6875,14.43125513,3.5700153,-10.86123983,0,1.921584,5.90625,10,0,11.5625,-1.5625,17.6470588235294,9.61176470588235,78.8,0,49.72,13.9327,176,98.6,14.0625,0,14.0625,14.0625,
62,2017-07-30,01:06:23.99252,5.65336,,0,-3.515625,-3.515625,-11.328125,14.0625,14.31768,1.6,14.7,14.0625,21,0,4406.25,14.43125513,3.5700153,-10.86123983,0,1.921584,5.875,10,0,10.78125,-1.5625,17.6470588235294,9.61176470588235,78.8,0,49.72,13.9327,176,98.6,14.0625,0,14.0625,14.0625,
63,2017-07-30,01:06:24.08612,5.74833,,0,-3.515625,-3.515625,-11.328125,14.0625,14.47812,1.6,14.7,14.0625,25,0,4375,14.43125513,3.4735284,-10.95772673,0,1.882368,5.83333333333333,10,0,10.78125,-1.5625,17.6470588235294,9.61176470588235,78.8,0,49.72,13.9327,176,98.6,14.0625,0,14.0625,14.0625,
64,2017-07-30,01:06:24.17972,5.84231,,-0.78125,-3.515625,-3.515625,-11.328125,14.0625,14.66148,1.6,14.7,14.0625,30,0,4328.125,14.43125513,3.4735284,-10.95772673,0,1.882368,5.77083333333333,10,0,10.46875,-1.25,17.6470588235294,9.61176470588235,78.8,0,49.72,13.9327,176,98.6,14.0625,0,14.0625,14.0625,
65,2017-07-30,01:06:24.28892,5.95237,,-0.78125,-3.515625,-3.515625,-11.328125,14.0625,14.71878,1.6,14.7,14.0625,35,0,4304.6875,14.503774,3.3770415,-11.1267325,0,1.86276,5.73958333333333,10,0,10.46875,-1.25,17.2549019607843,9.61176470588235,78.8,0,49.72,13.9327,176,98.6,14.0625,0,12.5,14.0625,
66,2017-07-30,01:06:24.38252,6.04831,,-0.78125,-3.515625,-3.515625,-11.328125,14.0625,14.77608,1.6,14.7,14.0625,40,0,4273.4375,14.503774,3.3770415,-11.1267325,0,1.86276,5.69791666666667,10,0,10.15625,-1.09375,17.2549019607843,9.61176470588235,78.8,0,49.72,14.00603,176,98.6,14.0625,0,14.0625,14.0625,
67,2017-07-30,01:06:24.47612,6.13747,,-0.78125,-3.515625,-3.515625,-11.328125,12.5,14.9709,1.6,14.7,14.0625,44,0,4234.375,14.43125513,3.4735284,-10.95772673,0,1.784328,5.64583333333333,10,0,10.15625,-1.09375,17.2549019607843,9.61176470588235,78.8,0,49.72,14.00603,176,98.6,14.0625,0,12.5,12.5,
68,2017-07-30,01:06:24.56972,6.24072,,-0.78125,-3.515625,-3.515625,-11.328125,12.5,15.06258,1.6,14.7,12.5,44,0,4226.5625,14.43125513,3.4735284,-10.95772673,0,1.784328,5.63541666666667,10,0,10,-0.9375,17.2549019607843,9.61176470588235,78.8,0,49.72,14.00603,176,98.6,14.0625,0,12.5,12.5,
69,2017-07-30,01:06:24.67892,6.33736,,-0.78125,-3.515625,-3.515625,-11.328125,12.5,15.09696,1.6,14.7,12.5,44,0,4187.5,14.503774,3.4735284,-11.0302456,0,1.86276,5.58333333333333,10,0,10,-0.9375,17.2549019607843,9.61176470588235,78.8,0,47.234,13.9327,176,98.6,14.0625,0,14.0625,12.5,
70,2017-07-30,01:06:24.77252,6.43234,,1.3671875,-3.515625,-3.515625,-11.328125,14.0625,15.0282,1.6,14.7,14.0625,44,0,4140.625,14.503774,3.4735284,-11.0302456,0,1.86276,5.52083333333333,10,0,9.84375,-0.9375,17.2549019607843,9.61176470588235,78.8,0,47.234,13.9327,176,98.6,14.0625,0,14.0625,14.0625,
71,2017-07-30,01:06:24.86612,6.53134,,1.3671875,-3.515625,-3.515625,-11.328125,14.0625,15.18864,1.6,14.7,14.0625,44,0,4156.25,14.503774,3.3770415,-11.1267325,0,1.882368,5.54166666666667,10,0,9.84375,-0.9375,17.2549019607843,9.61176470588235,78.8,0,47.234,13.9327,176,98.6,14.0625,0,14.0625,14.0625,
72,2017-07-30,01:06:24.95972,6.6273,,1.3671875,-3.515625,-3.515625,-11.328125,14.0625,14.99382,1.6,14.7,14.0625,44,0,4125,14.503774,3.3770415,-11.1267325,0,1.882368,5.5,10,0,9.84375,-0.9375,17.2549019607843,9.61176470588235,78.8,0,47.234,14.00603,176,98.6,14.0625,0,12.5,12.5,
73,2017-07-30,01:06:25.05332,6.72132,,3.3203125,-3.515625,-3.515625,-11.328125,12.5,14.7417,1.6,14.7,12.5,44,0,4085.9375,14.503774,3.2805546,-11.2232194,0,1.745112,5.44791666666667,10,0,9.84375,-0.9375,17.2549019607843,9.61176470588235,78.8,0,47.234,14.00603,176,98.6,12.5,0,10.9375,12.5,
74,2017-07-30,01:06:25.14692,6.81733,,3.3203125,-3.515625,-3.515625,-11.328125,12.5,14.40936,1.5,14.7,12.5,44,0,4078.125,14.503774,3.2805546,-11.2232194,0,1.745112,5.09765625,10,0,9.6875,-0.9375,16.8627450980392,9.61176470588235,78.8,0,47.234,14.00603,176,98.6,12.5,0,12.5,12.5,
75,2017-07-30,01:06:25.24052,6.91118,,3.3203125,-3.515625,-3.515625,-11.328125,12.5,14.07702,1.5,14.7,12.5,44,0,4054.6875,14.503774,3.2805546,-11.2232194,0,1.803936,5.068359375,10,0,9.6875,-0.9375,16.8627450980392,9.61176470588235,78.8,0,44.748,14.00603,176,98.6,14.0625,0,12.5,12.5,
76,2017-07-30,01:06:25.34972,7.00818,,0,-11.328125,-3.515625,-11.328125,12.5,13.85928,1.5,14.7,12.5,44,0,4031.25,14.503774,3.2805546,-11.2232194,0,1.803936,5.0390625,10,0,9.53125,-0.78125,16.8627450980392,9.61176470588235,78.8,0,44.748,14.00603,176,98.6,12.5,0,12.5,12.5,
77,2017-07-30,01:06:25.44332,7.10142,,0,-11.328125,-3.515625,-11.328125,12.5,14.47812,1.5,14.7,12.5,44,0,4000,14.43125513,3.2805546,-11.15070053,0,1.803936,5,10,0,9.53125,-0.78125,16.8627450980392,9.61176470588235,78.8,0,44.748,14.00603,176,98.6,14.0625,0,14.0625,12.5,
78,2017-07-30,01:06:25.53692,7.19649,,0,-11.328125,-3.515625,-11.328125,12.5,15.5439,1.5,14.7,12.5,44,0,3992.1875,14.43125513,3.2805546,-11.15070053,0,1.803936,4.990234375,10,0,9.6875,-0.9375,16.8627450980392,9.61176470588235,78.8,0,44.748,14.00603,176,98.6,14.0625,0,12.5,12.5,
79,2017-07-30,01:06:25.61492,7.28504,,0,-11.328125,-3.515625,-11.328125,14.0625,15.79602,1.5,14.7,14.0625,44,0,3953.125,14.503774,3.3770415,-11.1267325,0,1.843152,4.94140625,10,0,9.6875,-0.9375,16.8627450980392,9.61176470588235,78.8,0,44.748,14.00603,176,98.6,14.0625,0,12.5,12.5,
80,2017-07-30,01:06:25.72412,7.38536,,0,-11.328125,-3.515625,-11.328125,14.0625,16.1169,1.5,14.7,14.0625,44,0,3937.5,14.503774,3.3770415,-11.1267325,0,1.843152,4.921875,10,0,9.375,-0.78125,16.4705882352941,9.61176470588235,80.6,0,44.748,14.00603,176,98.6,14.0625,0,14.0625,14.0625,
81,2017-07-30,01:06:25.81772,7.48886,,0,-11.328125,-3.515625,-11.328125,12.5,15.86478,1.5,14.7,12.5,44,0,3906.25,14.503774,3.2805546,-11.2232194,0,1.823544,4.8828125,10,0,9.375,-0.78125,16.4705882352941,9.61176470588235,80.6,0,44.748,13.9327,176,98.6,14.0625,0,14.0625,12.5,
82,2017-07-30,01:06:25.91132,7.58033,,0,-11.328125,-3.515625,-11.328125,12.5,15.6585,1.5,14.7,12.5,44,0,3875,14.503774,3.2805546,-11.2232194,0,1.823544,4.84375,10,0,9.53125,-0.78125,16.4705882352941,9.61176470588235,80.6,0,44.748,13.9327,176,98.6,14.0625,0,12.5,12.5,
83,2017-07-30,01:06:26.02052,7.6803,,0,-11.328125,-3.515625,-11.328125,12.5,15.53244,1.5,14.7,12.5,44,0,3875,14.503774,3.2805546,-11.2232194,0,1.803936,4.84375,10,0,9.53125,-0.78125,16.078431372549,9.61176470588235,80.6,0,44.748,13.9327,176,98.6,14.0625,0,12.5,12.5,
84,2017-07-30,01:06:26.11412,7.77433,,0,-11.328125,-3.515625,-11.328125,12.5,15.5439,1.5,14.7,12.5,44,0,3859.375,14.503774,3.2805546,-11.2232194,0,1.803936,4.82421875,10,0,9.6875,-0.625,16.078431372549,9.61176470588235,80.6,0,42.262,14.00603,176,98.6,12.5,0,12.5,12.5,